Change the Weather History Date:

Friday, May 31, 2013

  Actual Average Record
Temperature  
Mean Temperature 73 °F 67 °F  
Max Temperature 87 °F 79 °F 97 °F (1895)
Min Temperature 59 °F 56 °F 41 °F (2000)
Degree Days  
Heating Degree Days 0 2  
Month to date heating degree days 150 122  
Since 1 July heating degree days 4292 4445  
Cooling Degree Days 8 4  
Month to date cooling degree days 95 64  
Year to date cooling degree days 135 82  
Growing Degree Days 24 (Base 50)    
Moisture  
Dew Point 63 °F    
Average Humidity 73    
Maximum Humidity 100    
Minimum Humidity 45    
Precipitation  
Precipitation 0.00 in 0.13 in 1.18 in (1931)
Month to date precipitation 6.12 3.73  
Year to date precipitation 20.44 16.69  
Snow  
Snow 0.00 in - - ()
Month to date snowfall 0.0  
Since 1 July snowfall 13.0  
Snow Depth 0.00 in    
Sea Level Pressure  
Sea Level Pressure 30.15 in    
Wind  
Wind Speed 6 mph (SSW)    
Max Wind Speed 15 mph    
Max Gust Speed 21 mph    
Visibility 10 miles    
Events      
T = Trace of Precipitation, MM = Missing Value Source: NWS Daily Summary

Daily Weather History Graph

Daily Weather History Graph

Search for Another Location

Airport or City:

Trip Planner

Search our weather history database for the weather conditions in past years. The results will help you decide how hot, cold, wet, or windy it might be!

Date:

Astronomy

May. 31, 2013 Rise Set
Actual Time 5:58 AM EDT 8:31 PM EDT
Civil Twilight 5:27 AM EDT 9:01 PM EDT
Nautical Twilight 4:50 AM EDT 9:39 PM EDT
Astronomical Twilight 4:08 AM EDT 10:21 PM EDT
Moon 1:11 AM EDT (5/31) 1:04 PM EDT (5/31)
Length of Visible Light 15h 34m
Length of Day
14h 33m
Waning Gibbous, 51% of the Moon is Illuminated
May 31
Waning Gibbous
May 31
Last Quarter
Jun 8
New
Jun 16
First Quarter
Jun 23
Full

Hourly Weather History & Observations

Time (EDT) Temp. Heat Index Dew Point Humidity Pressure Visibility Wind Dir Wind Speed Gust Speed Precip Events Conditions
12:54 AM 66.0 °F - 60.1 °F 81% 30.19 in 10.0 mi Calm Calm - N/A   Clear
1:54 AM 64.0 °F - 60.1 °F 87% 30.19 in 10.0 mi Calm Calm - N/A   Clear
2:54 AM 62.1 °F - 59.0 °F 90% 30.19 in 10.0 mi Calm Calm - N/A   Clear
3:54 AM 61.0 °F - 59.0 °F 93% 30.19 in 10.0 mi Calm Calm - N/A   Clear
4:54 AM 61.0 °F - 60.1 °F 97% 30.19 in 10.0 mi South 5.8 mph - N/A   Clear
5:54 AM 61.0 °F - 59.0 °F 93% 30.19 in 10.0 mi Calm Calm - N/A   Clear
6:54 AM 64.0 °F - 61.0 °F 90% 30.19 in 10.0 mi Calm Calm - N/A   Clear
7:54 AM 66.0 °F - 62.1 °F 87% 30.19 in 10.0 mi South 5.8 mph - N/A   Clear
8:54 AM 73.0 °F - 64.0 °F 73% 30.20 in 10.0 mi SSW 6.9 mph - N/A   Clear
9:54 AM 77.0 °F - 66.0 °F 69% 30.19 in 10.0 mi Variable 3.5 mph - N/A   Clear
10:54 AM 80.1 °F 82.1 °F 66.0 °F 62% 30.19 in 10.0 mi SW 8.1 mph - N/A   Clear
11:54 AM 84.0 °F 85.8 °F 64.9 °F 53% 30.19 in 10.0 mi SSW 10.4 mph - N/A   Clear
12:54 PM 84.0 °F 86.3 °F 66.0 °F 55% 30.17 in 10.0 mi South 10.4 mph - N/A   Mostly Cloudy
1:54 PM 86.0 °F 86.3 °F 62.1 °F 44% 30.15 in 10.0 mi SSW 11.5 mph 20.7 mph N/A   Scattered Clouds
2:54 PM 86.0 °F 87.6 °F 64.9 °F 49% 30.14 in 10.0 mi South 9.2 mph - N/A   Scattered Clouds
3:54 PM 86.0 °F 86.8 °F 63.0 °F 46% 30.12 in 10.0 mi SSW 9.2 mph - N/A   Scattered Clouds
4:54 PM 84.9 °F 85.9 °F 63.0 °F 48% 30.10 in 10.0 mi South 12.7 mph - N/A   Partly Cloudy
5:54 PM 84.9 °F 85.4 °F 62.1 °F 46% 30.09 in 10.0 mi South 11.5 mph 19.6 mph N/A   Partly Cloudy
6:54 PM 82.9 °F 84.4 °F 64.0 °F 53% 30.08 in 10.0 mi South 10.4 mph - N/A   Clear
7:54 PM 79.0 °F - 64.0 °F 60% 30.10 in 10.0 mi SSW 5.8 mph - N/A   Clear
8:54 PM 73.9 °F - 64.0 °F 71% 30.09 in 10.0 mi South 3.5 mph - N/A   Clear
9:54 PM 72.0 °F - 64.0 °F 76% 30.11 in 10.0 mi South 3.5 mph - N/A   Clear
10:54 PM 70.0 °F - 63.0 °F 78% 30.11 in 10.0 mi SW 3.5 mph - N/A   Clear
11:54 PM 69.1 °F - 63.0 °F 81% 30.10 in 10.0 mi SW 3.5 mph - N/A   Clear